Погода в Бюрегаване

Армения     40°18′46″N   44°35′51″E
темп.,
°C
ветер,
м/с
пор.,
м/с
влажн.,
%
обл.,
%
осадки,
мм/ч
давл.,
гПа
погр.,
м
12 мая, ср
ср1201:00+12св44480 0.0 101287
04:00+11св33520 0.0 101267
07:00+12св23540 0.0 101365
10:00+18юз11380 0.0 1013710
13:00+22ююз33260 0.0 10121877
16:00+24ю23196 0.0 10102152
19:00+23сз112538 0.0 1009535
22:00+17св44321 0.0 101266
13 мая, чт
чт1301:00+16св44325 0.0 101366
04:00+15св33345 0.0 101349
07:00+15св334179 0.0 101474
10:00+22юз11271 0.0 1014748
13:00+26ю23200 0.0 10122102
16:00+23ссз673099 0.1 1011422
19:00+22ссз233498 0.0 1012195
22:00+16св2256100 0.4 1018210
14 мая, пт
пт1401:00+16с1153100 0.0 101582
04:00+15ссв115498 0.0 101639
07:00+16св12525 0.0 101770
10:00+21юз21375 0.0 1015765
13:00+25юз33300 0.0 10131576
16:00+27ююз33250 0.0 10112058
19:00+21ссв8134522 0.0 1012535
22:00+17св58546 0.1 1014187
15 мая, сб
сб1501:00+15св465769 0.3 1015114
04:00+14св33530 0.3 101571
07:00+15св33550 0.0 101599
10:00+21ююз21390 0.0 1014941
13:00+25юз33320 0.0 10121891
16:00+27зюз24279 0.0 10092665
19:00+24ссз02398 0.2 1009671
22:00+17св475537 0.7 1012142
16 мая, вс
вс1601:00+16св35586 0.1 1012113
04:00+15св34605 0.1 101289
07:00+15св33575 0.0 1013112
10:00+21ююз11402 0.0 10111026
13:00+25ююз35314 0.0 10091839
16:00+27юв33220 0.0 10052082
19:00+22ю23387 0.0 1006309
22:00+18св3453100 0.0 1010198